{"data":{"norad_id":47373,"intl_designator":"2021-005AA","name":"STARLINK-2092","alt_names":[],"object_type":"PAYLOAD","status":"ACTIVE","operator":null,"country":"US","launch_date":"2021-01-20","launch_site_code":"AFETR","launch_vehicle":null,"mission":null,"orbit_class":"UNKNOWN","rcs_meters":null,"size_class":null,"mass_kg":null,"dimensions":null,"purposes":["comms"],"wikipedia_slug":null,"has_3d_model":false,"image_url":null,"decayed_at":null,"tle_current":{"epoch":"2026-09-20T04:36:51.494688Z","epoch_age_seconds":48635,"freshness":"FRESH","line1":"1 47373U 21005AA  26263.19226267  .00000004  00000+0  11898-4 0  9990","line2":"2 47373  53.1594 237.3075 0001427  88.8848 271.2317 15.31703903312830","mean_motion":15.31703903,"eccentricity":0.0001427,"inclination_deg":53.1594,"raan_deg":237.3075,"arg_perigee_deg":88.8848,"mean_anomaly_deg":271.2317,"bstar":1.1898e-5,"rev_number":31283,"period_min":94.012948402078,"perigee_km":469.75102752349,"apogee_km":471.70569369741,"semimajor_km":6848.8653606104,"source":"CELESTRAK","updated_at":"2026-09-20T09:00:38.591528Z"}}}